Time,TemperatureF,DewpointF,PressureIn,WindDirection,WindDirectionDegrees,WindSpeedMPH,WindSpeedGustMPH,Humidity,HourlyPrecipIn,Conditions,Clouds,dailyrainin,SoftwareType,DateUTC
2013-10-07 00:00:00,61.7,59.0,30.11,South,180,4.0,17.0,90,0.00,,,0.00,Rainwise IP-100,2013-10-07 04:00:00,
2013-10-07 00:02:00,61.5,59.0,30.11,North,360,2.0,14.0,91,0.00,,,0.00,Rainwise IP-100,2013-10-07 04:02:00,
2013-10-07 00:04:00,61.4,59.0,30.11,South,180,6.0,14.0,90,0.00,,,0.00,Rainwise IP-100,2013-10-07 04:04:00,
2013-10-07 00:07:00,61.5,59.0,30.11,SW,225,2.0,11.0,90,0.00,,,0.00,Rainwise IP-100,2013-10-07 04:07:00,
2013-10-07 00:12:00,61.5,59.0,30.11,South,180,2.0,16.0,90,0.00,,,0.00,Rainwise IP-100,2013-10-07 04:12:00,
2013-10-07 00:14:00,61.5,59.0,30.11,South,180,4.0,16.0,90,0.00,,,0.00,Rainwise IP-100,2013-10-07 04:14:00,
2013-10-07 00:19:00,61.5,59.0,30.11,West,270,1.0,12.0,90,0.00,,,0.00,Rainwise IP-100,2013-10-07 04:19:00,
2013-10-07 00:24:00,61.4,59.0,30.11,South,180,6.0,7.0,91,0.00,,,0.00,Rainwise IP-100,2013-10-07 04:24:00,
2013-10-07 00:30:00,61.4,59.0,30.11,South,180,11.0,11.0,91,0.00,,,0.00,Rainwise IP-100,2013-10-07 04:30:00,
2013-10-07 00:35:00,61.5,59.0,30.10,South,180,5.0,14.0,90,0.00,,,0.00,Rainwise IP-100,2013-10-07 04:35:00,
2013-10-07 00:40:00,61.7,59.0,30.10,South,180,1.0,12.0,90,0.00,,,0.00,Rainwise IP-100,2013-10-07 04:40:00,
2013-10-07 00:45:00,61.6,59.0,30.11,South,180,4.0,7.0,91,0.00,,,0.00,Rainwise IP-100,2013-10-07 04:45:00,
2013-10-07 00:50:00,61.4,59.0,30.11,SW,225,2.0,4.0,92,0.00,,,0.00,Rainwise IP-100,2013-10-07 04:50:00,
2013-10-07 00:55:00,61.3,59.0,30.11,WSW,247,2.0,6.0,92,0.00,,,0.00,Rainwise IP-100,2013-10-07 04:55:00,
2013-10-07 01:00:00,61.2,59.0,30.11,SW,225,2.0,8.0,92,0.00,,,0.00,Rainwise IP-100,2013-10-07 05:00:00,
2013-10-07 01:05:00,61.3,59.0,30.11,NW,315,6.0,6.0,92,0.00,,,0.00,Rainwise IP-100,2013-10-07 05:05:00,
2013-10-07 01:10:00,61.2,59.0,30.11,SW,225,1.0,6.0,93,0.00,,,0.00,Rainwise IP-100,2013-10-07 05:10:00,
2013-10-07 01:15:00,61.2,59.0,30.11,WSW,247,1.0,7.0,93,0.00,,,0.00,Rainwise IP-100,2013-10-07 05:15:00,
2013-10-07 01:20:00,61.1,59.0,30.11,WNW,292,0.0,4.0,94,0.00,,,0.00,Rainwise IP-100,2013-10-07 05:20:00,
2013-10-07 01:25:00,60.9,59.0,30.10,NW,315,2.0,2.0,94,0.00,,,0.00,Rainwise IP-100,2013-10-07 05:25:00,
2013-10-07 01:31:00,60.9,59.0,30.10,SW,225,0.0,4.0,94,0.00,,,0.00,Rainwise IP-100,2013-10-07 05:31:00,
2013-10-07 01:36:00,60.9,59.0,30.10,NW,315,2.0,2.0,95,0.00,,,0.00,Rainwise IP-100,2013-10-07 05:36:00,
2013-10-07 01:41:00,60.8,59.0,30.10,East,90,0.0,2.0,96,0.00,,,0.00,Rainwise IP-100,2013-10-07 05:41:00,
2013-10-07 01:46:00,60.4,59.0,30.10,SW,225,0.0,3.0,96,0.00,,,0.00,Rainwise IP-100,2013-10-07 05:46:00,
2013-10-07 01:51:00,60.4,59.0,30.10,NW,315,4.0,6.0,96,0.00,,,0.00,Rainwise IP-100,2013-10-07 05:51:00,
2013-10-07 01:56:00,60.6,59.0,30.10,NW,315,2.0,7.0,95,0.00,,,0.00,Rainwise IP-100,2013-10-07 05:56:00,
2013-10-07 02:01:00,60.6,59.0,30.09,North,360,4.0,6.0,96,0.00,,,0.00,Rainwise IP-100,2013-10-07 06:01:00,
2013-10-07 02:06:00,60.3,59.0,30.09,NNW,337,5.0,6.0,98,0.00,,,0.00,Rainwise IP-100,2013-10-07 06:06:00,
2013-10-07 02:11:00,60.3,59.0,30.09,North,360,3.0,7.0,97,0.00,,,0.00,Rainwise IP-100,2013-10-07 06:11:00,
2013-10-07 02:16:00,60.3,59.0,30.09,NE,45,3.0,6.0,97,0.00,,,0.00,Rainwise IP-100,2013-10-07 06:16:00,
2013-10-07 02:21:00,60.3,59.0,30.08,West,270,2.0,6.0,97,0.00,,,0.00,Rainwise IP-100,2013-10-07 06:21:00,
2013-10-07 02:26:00,60.3,59.0,30.08,North,360,2.0,5.0,96,0.00,,,0.00,Rainwise IP-100,2013-10-07 06:26:00,
2013-10-07 02:32:00,60.3,59.0,30.07,NW,315,1.0,5.0,96,0.00,,,0.00,Rainwise IP-100,2013-10-07 06:32:00,
2013-10-07 02:37:00,60.5,59.0,30.07,West,270,2.0,5.0,96,0.00,,,0.00,Rainwise IP-100,2013-10-07 06:37:00,
2013-10-07 02:42:00,60.8,59.0,30.07,West,270,2.0,8.0,94,0.00,,,0.00,Rainwise IP-100,2013-10-07 06:42:00,
2013-10-07 02:47:00,60.9,59.0,30.07,SSE,157,1.0,4.0,94,0.00,,,0.00,Rainwise IP-100,2013-10-07 06:47:00,
2013-10-07 02:52:00,61.1,59.0,30.07,SSE,157,4.0,4.0,94,0.00,,,0.00,Rainwise IP-100,2013-10-07 06:52:00,
2013-10-07 02:57:00,61.1,59.0,30.07,West,270,2.0,9.0,94,0.00,,,0.00,Rainwise IP-100,2013-10-07 06:57:00,
2013-10-07 03:02:00,60.9,59.0,30.07,SW,225,4.0,11.0,94,0.00,,,0.00,Rainwise IP-100,2013-10-07 07:02:00,
2013-10-07 03:07:00,61.1,59.0,30.07,SW,225,4.0,9.0,94,0.00,,,0.00,Rainwise IP-100,2013-10-07 07:07:00,
2013-10-07 03:12:00,61.2,59.0,30.07,SW,225,4.0,9.0,94,0.00,,,0.00,Rainwise IP-100,2013-10-07 07:12:00,
2013-10-07 03:17:00,61.3,59.0,30.07,SW,225,4.0,12.0,93,0.00,,,0.00,Rainwise IP-100,2013-10-07 07:17:00,
2013-10-07 03:22:00,61.4,59.0,30.06,South,180,7.0,11.0,93,0.00,,,0.00,Rainwise IP-100,2013-10-07 07:22:00,
2013-10-07 03:27:00,61.4,59.0,30.06,West,270,5.0,9.0,93,0.00,,,0.00,Rainwise IP-100,2013-10-07 07:27:00,
2013-10-07 03:33:00,61.6,59.0,30.06,WSW,247,6.0,11.0,93,0.00,,,0.00,Rainwise IP-100,2013-10-07 07:33:00,
2013-10-07 03:38:00,61.5,59.0,30.06,SW,225,2.0,11.0,93,0.00,,,0.00,Rainwise IP-100,2013-10-07 07:38:00,
2013-10-07 03:43:00,61.5,59.0,30.06,SW,225,3.0,13.0,93,0.00,,,0.00,Rainwise IP-100,2013-10-07 07:43:00,
2013-10-07 03:48:00,61.6,59.0,30.05,SW,225,2.0,12.0,93,0.00,,,0.00,Rainwise IP-100,2013-10-07 07:48:00,
2013-10-07 03:53:00,61.6,59.0,30.05,West,270,2.0,8.0,93,0.00,,,0.00,Rainwise IP-100,2013-10-07 07:53:00,
2013-10-07 03:58:00,61.6,59.0,30.05,SW,225,3.0,11.0,93,0.00,,,0.00,Rainwise IP-100,2013-10-07 07:58:00,
2013-10-07 04:03:00,61.7,59.0,30.05,SW,225,2.0,10.0,93,0.00,,,0.00,Rainwise IP-100,2013-10-07 08:03:00,
2013-10-07 04:08:00,61.8,59.0,30.05,South,180,6.0,7.0,93,0.00,,,0.00,Rainwise IP-100,2013-10-07 08:08:00,
2013-10-07 04:13:00,62.1,60.0,30.05,South,180,4.0,11.0,92,0.00,,,0.00,Rainwise IP-100,2013-10-07 08:13:00,
2013-10-07 04:18:00,61.9,60.0,30.05,South,180,2.0,7.0,92,0.00,,,0.00,Rainwise IP-100,2013-10-07 08:18:00,
2013-10-07 04:23:00,61.9,60.0,30.05,South,180,4.0,6.0,92,0.00,,,0.00,Rainwise IP-100,2013-10-07 08:23:00,
2013-10-07 04:28:00,62.4,60.0,30.04,SSE,157,12.0,14.0,91,0.00,,,0.00,Rainwise IP-100,2013-10-07 08:28:00,
2013-10-07 04:34:00,63.2,60.0,30.04,South,180,6.0,21.0,89,0.00,,,0.00,Rainwise IP-100,2013-10-07 08:34:00,
2013-10-07 04:39:00,63.5,59.0,30.04,SSW,202,3.0,12.0,87,0.00,,,0.00,Rainwise IP-100,2013-10-07 08:39:00,
2013-10-07 04:44:00,63.6,59.0,30.05,South,180,4.0,8.0,87,0.00,,,0.00,Rainwise IP-100,2013-10-07 08:44:00,
2013-10-07 04:49:00,63.9,59.0,30.04,West,270,4.0,16.0,85,0.00,,,0.00,Rainwise IP-100,2013-10-07 08:49:00,
2013-10-07 04:54:00,63.8,59.0,30.04,SE,135,4.0,11.0,86,0.00,,,0.00,Rainwise IP-100,2013-10-07 08:54:00,
2013-10-07 04:59:00,64.1,59.0,30.05,SW,225,4.0,25.0,84,0.00,,,0.00,Rainwise IP-100,2013-10-07 08:59:00,
2013-10-07 05:04:00,64.7,59.0,30.04,South,180,9.0,19.0,83,0.00,,,0.00,Rainwise IP-100,2013-10-07 09:04:00,
2013-10-07 05:09:00,64.7,59.0,30.04,South,180,6.0,16.0,82,0.00,,,0.00,Rainwise IP-100,2013-10-07 09:09:00,
2013-10-07 05:14:00,64.9,59.0,30.04,South,180,19.0,19.0,81,0.00,,,0.00,Rainwise IP-100,2013-10-07 09:14:00,
2013-10-07 05:19:00,64.9,59.0,30.04,South,180,7.0,20.0,81,0.00,,,0.00,Rainwise IP-100,2013-10-07 09:19:00,
2013-10-07 05:24:00,64.7,59.0,30.03,SSE,157,6.0,11.0,82,0.00,,,0.00,Rainwise IP-100,2013-10-07 09:24:00,
2013-10-07 05:29:00,64.7,58.0,30.03,SE,135,9.0,14.0,81,0.00,,,0.00,Rainwise IP-100,2013-10-07 09:29:00,
2013-10-07 05:35:00,64.4,59.0,30.03,SW,225,9.0,16.0,83,0.00,,,0.00,Rainwise IP-100,2013-10-07 09:35:00,
2013-10-07 05:40:00,64.1,59.0,30.03,SSE,157,8.0,15.0,83,0.00,,,0.00,Rainwise IP-100,2013-10-07 09:40:00,
2013-10-07 05:45:00,64.3,58.0,30.03,South,180,6.0,21.0,82,0.00,,,0.00,Rainwise IP-100,2013-10-07 09:45:00,
2013-10-07 05:50:00,64.2,58.0,30.03,SSE,157,6.0,19.0,82,0.00,,,0.00,Rainwise IP-100,2013-10-07 09:50:00,
2013-10-07 05:55:00,64.4,58.0,30.03,SE,135,7.0,21.0,81,0.00,,,0.00,Rainwise IP-100,2013-10-07 09:55:00,
2013-10-07 06:00:00,64.1,58.0,30.03,South,180,11.0,19.0,81,0.00,,,0.00,Rainwise IP-100,2013-10-07 10:00:00,
2013-10-07 06:05:00,64.4,58.0,30.02,South,180,18.0,21.0,80,0.00,,,0.00,Rainwise IP-100,2013-10-07 10:05:00,
2013-10-07 06:10:00,64.1,58.0,30.02,South,180,9.0,23.0,81,0.00,,,0.00,Rainwise IP-100,2013-10-07 10:10:00,
2013-10-07 06:15:00,63.9,58.0,30.03,South,180,8.0,17.0,81,0.00,,,0.00,Rainwise IP-100,2013-10-07 10:15:00,
2013-10-07 06:20:00,63.9,58.0,30.02,SE,135,6.0,17.0,81,0.00,,,0.00,Rainwise IP-100,2013-10-07 10:20:00,
2013-10-07 06:25:00,63.7,57.0,30.02,South,180,7.0,21.0,82,0.00,,,0.00,Rainwise IP-100,2013-10-07 10:25:00,
2013-10-07 06:30:00,63.8,57.0,30.02,South,180,10.0,17.0,81,0.00,,,0.00,Rainwise IP-100,2013-10-07 10:30:00,
2013-10-07 06:36:00,63.9,57.0,30.01,South,180,14.0,24.0,80,0.00,,,0.00,Rainwise IP-100,2013-10-07 10:36:00,
2013-10-07 06:41:00,63.9,57.0,30.02,SSE,157,14.0,27.0,80,0.00,,,0.00,Rainwise IP-100,2013-10-07 10:41:00,
2013-10-07 06:46:00,64.0,57.0,30.02,South,180,11.0,23.0,80,0.00,,,0.00,Rainwise IP-100,2013-10-07 10:46:00,
2013-10-07 06:51:00,64.3,57.0,30.02,SE,135,12.0,25.0,78,0.00,,,0.00,Rainwise IP-100,2013-10-07 10:51:00,
2013-10-07 06:56:00,64.2,57.0,30.01,SE,135,11.0,21.0,79,0.00,,,0.00,Rainwise IP-100,2013-10-07 10:56:00,
2013-10-07 07:01:00,63.9,57.0,30.02,SSE,157,11.0,14.0,80,0.00,,,0.00,Rainwise IP-100,2013-10-07 11:01:00,
2013-10-07 07:06:00,63.6,57.0,30.02,SSE,157,11.0,18.0,81,0.00,,,0.00,Rainwise IP-100,2013-10-07 11:06:00,
2013-10-07 07:11:00,63.9,57.0,30.02,SE,135,11.0,22.0,80,0.00,,,0.00,Rainwise IP-100,2013-10-07 11:11:00,
2013-10-07 07:16:00,63.8,57.0,30.02,SE,135,7.0,19.0,80,0.00,,,0.00,Rainwise IP-100,2013-10-07 11:16:00,
2013-10-07 07:21:00,63.9,58.0,30.02,South,180,11.0,33.0,81,0.00,,,0.00,Rainwise IP-100,2013-10-07 11:21:00,
2013-10-07 07:26:00,63.7,57.0,30.02,SSE,157,10.0,15.0,81,0.00,,,0.00,Rainwise IP-100,2013-10-07 11:26:00,
2013-10-07 07:31:00,63.8,57.0,30.02,SE,135,14.0,16.0,81,0.00,,,0.00,Rainwise IP-100,2013-10-07 11:31:00,
2013-10-07 07:37:00,63.8,57.0,30.03,SSE,157,14.0,19.0,81,0.00,,,0.00,Rainwise IP-100,2013-10-07 11:37:00,
2013-10-07 07:42:00,63.9,58.0,30.03,SSE,157,12.0,18.0,81,0.00,,,0.00,Rainwise IP-100,2013-10-07 11:42:00,
2013-10-07 07:47:00,63.8,57.0,30.03,South,180,6.0,15.0,80,0.00,,,0.00,Rainwise IP-100,2013-10-07 11:47:00,
2013-10-07 07:52:00,63.9,57.0,30.03,South,180,3.0,12.0,80,0.00,,,0.00,Rainwise IP-100,2013-10-07 11:52:00,
2013-10-07 07:57:00,63.9,57.0,30.03,SE,135,7.0,14.0,80,0.00,,,0.00,Rainwise IP-100,2013-10-07 11:57:00,
2013-10-07 08:02:00,64.2,57.0,30.03,South,180,10.0,13.0,79,0.00,,,0.00,Rainwise IP-100,2013-10-07 12:02:00,
2013-10-07 08:07:00,64.3,57.0,30.02,SE,135,5.0,18.0,78,0.00,,,0.00,Rainwise IP-100,2013-10-07 12:07:00,
2013-10-07 08:12:00,64.7,57.0,30.01,SW,225,2.0,14.0,77,0.00,,,0.00,Rainwise IP-100,2013-10-07 12:12:00,
2013-10-07 08:17:00,65.1,57.0,30.01,South,180,1.0,13.0,75,0.00,,,0.00,Rainwise IP-100,2013-10-07 12:17:00,
2013-10-07 08:22:00,65.4,57.0,30.01,SE,135,4.0,12.0,75,0.00,,,0.00,Rainwise IP-100,2013-10-07 12:22:00,
2013-10-07 08:27:00,65.6,57.0,30.01,SE,135,5.0,11.0,74,0.00,,,0.00,Rainwise IP-100,2013-10-07 12:27:00,
2013-10-07 08:32:00,65.8,57.0,30.01,South,180,14.0,14.0,74,0.00,,,0.00,Rainwise IP-100,2013-10-07 12:32:00,
2013-10-07 08:38:00,65.9,57.0,30.01,SSE,157,13.0,21.0,75,0.00,,,0.00,Rainwise IP-100,2013-10-07 12:38:00,
2013-10-07 08:43:00,66.1,57.0,30.01,South,180,7.0,22.0,73,0.00,,,0.00,Rainwise IP-100,2013-10-07 12:43:00,
2013-10-07 08:48:00,66.2,57.0,30.00,South,180,8.0,14.0,74,0.00,,,0.00,Rainwise IP-100,2013-10-07 12:48:00,
2013-10-07 08:53:00,66.3,57.0,30.00,South,180,9.0,17.0,74,0.00,,,0.00,Rainwise IP-100,2013-10-07 12:53:00,
2013-10-07 08:58:00,66.4,57.0,30.00,South,180,9.0,18.0,74,0.00,,,0.00,Rainwise IP-100,2013-10-07 12:58:00,
2013-10-07 09:03:00,66.6,57.0,30.00,South,180,7.0,19.0,73,0.00,,,0.00,Rainwise IP-100,2013-10-07 13:03:00,
2013-10-07 09:08:00,66.6,59.0,29.99,SE,135,5.0,11.0,75,0.00,,,0.00,Rainwise IP-100,2013-10-07 13:08:00,
2013-10-07 09:13:00,66.7,59.0,29.99,South,180,2.0,6.0,75,0.00,,,0.00,Rainwise IP-100,2013-10-07 13:13:00,
2013-10-07 09:18:00,66.9,58.0,29.99,SE,135,2.0,11.0,73,0.00,,,0.00,Rainwise IP-100,2013-10-07 13:18:00,
2013-10-07 09:23:00,67.1,59.0,29.99,South,180,4.0,17.0,74,0.00,,,0.00,Rainwise IP-100,2013-10-07 13:23:00,
2013-10-07 09:28:00,67.0,58.0,29.99,SE,135,2.0,5.0,73,0.00,,,0.00,Rainwise IP-100,2013-10-07 13:28:00,
2013-10-07 09:33:00,67.1,57.0,29.99,SE,135,4.0,13.0,72,0.00,,,0.00,Rainwise IP-100,2013-10-07 13:33:00,
2013-10-07 09:39:00,67.1,57.0,29.99,SE,135,5.0,13.0,72,0.00,,,0.00,Rainwise IP-100,2013-10-07 13:39:00,
2013-10-07 09:44:00,66.9,59.0,29.99,SE,135,3.0,5.0,75,0.00,,,0.00,Rainwise IP-100,2013-10-07 13:44:00,
2013-10-07 09:49:00,66.9,58.0,29.99,SE,135,4.0,9.0,73,0.00,,,0.00,Rainwise IP-100,2013-10-07 13:49:00,
2013-10-07 09:54:00,66.9,59.0,29.99,East,90,0.0,7.0,74,0.00,,,0.00,Rainwise IP-100,2013-10-07 13:54:00,
2013-10-07 09:59:00,67.1,58.0,29.98,SSE,157,2.0,4.0,73,0.00,,,0.00,Rainwise IP-100,2013-10-07 13:59:00,
2013-10-07 10:04:00,67.3,57.0,29.98,South,180,2.0,11.0,71,0.00,,,0.00,Rainwise IP-100,2013-10-07 14:04:00,
2013-10-07 10:09:00,67.3,57.0,29.98,SE,135,5.0,9.0,72,0.00,,,0.00,Rainwise IP-100,2013-10-07 14:09:00,
2013-10-07 10:14:00,67.4,57.0,29.97,SSE,157,5.0,16.0,71,0.00,,,0.00,Rainwise IP-100,2013-10-07 14:14:00,
2013-10-07 10:19:00,67.3,57.0,29.97,SSE,157,8.0,13.0,72,0.00,,,0.00,Rainwise IP-100,2013-10-07 14:19:00,
2013-10-07 10:24:00,67.3,58.0,29.96,South,180,6.0,17.0,73,0.00,,,0.00,Rainwise IP-100,2013-10-07 14:24:00,
2013-10-07 10:29:00,67.4,59.0,29.96,SSE,157,4.0,19.0,73,0.00,,,0.00,Rainwise IP-100,2013-10-07 14:29:00,
2013-10-07 10:34:00,67.2,59.0,29.96,South,180,5.0,14.0,74,0.00,,,0.00,Rainwise IP-100,2013-10-07 14:34:00,
2013-10-07 10:40:00,67.3,59.0,29.96,SW,225,1.0,17.0,74,0.00,,,0.00,Rainwise IP-100,2013-10-07 14:40:00,
2013-10-07 10:45:00,67.4,59.0,29.95,SSE,157,11.0,25.0,73,0.00,,,0.00,Rainwise IP-100,2013-10-07 14:45:00,
2013-10-07 10:50:00,67.4,59.0,29.95,SE,135,16.0,24.0,73,0.00,,,0.00,Rainwise IP-100,2013-10-07 14:50:00,
2013-10-07 10:55:00,67.4,59.0,29.95,SSE,157,17.0,31.0,73,0.00,,,0.00,Rainwise IP-100,2013-10-07 14:55:00,
2013-10-07 11:00:00,67.3,59.0,29.93,South,180,13.0,27.0,74,0.00,,,0.00,Rainwise IP-100,2013-10-07 15:00:00,
2013-10-07 11:05:00,67.3,57.0,29.94,SE,135,7.0,22.0,72,0.00,,,0.00,Rainwise IP-100,2013-10-07 15:05:00,
2013-10-07 11:10:00,67.4,59.0,29.95,SE,135,14.0,17.0,73,0.00,,,0.00,Rainwise IP-100,2013-10-07 15:10:00,
2013-10-07 11:15:00,67.5,58.0,29.94,SE,135,7.0,20.0,72,0.00,,,0.00,Rainwise IP-100,2013-10-07 15:15:00,
2013-10-07 11:20:00,67.5,58.0,29.94,South,180,9.0,33.0,72,0.00,,,0.00,Rainwise IP-100,2013-10-07 15:20:00,
2013-10-07 11:25:00,67.7,58.0,29.93,South,180,7.0,23.0,72,0.00,,,0.00,Rainwise IP-100,2013-10-07 15:25:00,
2013-10-07 11:30:00,67.9,59.0,29.93,SSW,202,10.0,22.0,72,0.00,,,0.00,Rainwise IP-100,2013-10-07 15:30:00,
2013-10-07 11:35:00,68.1,58.0,29.92,SSE,157,6.0,21.0,71,0.00,,,0.00,Rainwise IP-100,2013-10-07 15:35:00,
2013-10-07 11:41:00,68.3,57.0,29.92,SE,135,3.0,27.0,70,0.00,,,0.00,Rainwise IP-100,2013-10-07 15:41:00,
2013-10-07 11:46:00,68.5,58.0,29.93,SSE,157,19.0,24.0,70,0.00,,,0.00,Rainwise IP-100,2013-10-07 15:46:00,
2013-10-07 11:51:00,68.9,58.0,29.92,South,180,10.0,20.0,69,0.00,,,0.00,Rainwise IP-100,2013-10-07 15:51:00,
2013-10-07 11:56:00,69.7,59.0,29.91,ESE,112,13.0,19.0,68,0.00,,,0.00,Rainwise IP-100,2013-10-07 15:56:00,
2013-10-07 12:01:00,70.3,59.0,29.90,SE,135,8.0,20.0,67,0.00,,,0.00,Rainwise IP-100,2013-10-07 16:01:00,
2013-10-07 12:06:00,70.9,60.0,29.89,South,180,12.0,21.0,68,0.00,,,0.00,Rainwise IP-100,2013-10-07 16:06:00,
2013-10-07 12:11:00,70.8,59.0,29.89,SE,135,21.0,21.0,68,0.00,,,0.00,Rainwise IP-100,2013-10-07 16:11:00,
2013-10-07 12:16:00,70.9,59.0,29.89,South,180,11.0,21.0,66,0.00,,,0.00,Rainwise IP-100,2013-10-07 16:16:00,
2013-10-07 12:21:00,71.1,58.0,29.88,East,90,12.0,29.0,65,0.00,,,0.00,Rainwise IP-100,2013-10-07 16:21:00,
2013-10-07 12:26:00,70.7,59.0,29.88,SE,135,6.0,20.0,66,0.00,,,0.00,Rainwise IP-100,2013-10-07 16:26:00,
2013-10-07 12:31:00,70.7,59.0,29.88,SSE,157,31.0,31.0,66,0.00,,,0.00,Rainwise IP-100,2013-10-07 16:31:00,
2013-10-07 12:36:00,71.1,59.0,29.86,SE,135,11.0,31.0,66,0.00,,,0.00,Rainwise IP-100,2013-10-07 16:36:00,
2013-10-07 12:42:00,71.4,59.0,29.86,SSE,157,15.0,22.0,65,0.00,,,0.00,Rainwise IP-100,2013-10-07 16:42:00,
2013-10-07 12:47:00,71.3,59.0,29.87,SSE,157,11.0,20.0,66,0.00,,,0.00,Rainwise IP-100,2013-10-07 16:47:00,
2013-10-07 12:52:00,71.1,59.0,29.87,South,180,3.0,14.0,67,0.00,,,0.00,Rainwise IP-100,2013-10-07 16:52:00,
2013-10-07 12:57:00,70.9,60.0,29.86,SE,135,10.0,21.0,68,0.00,,,0.00,Rainwise IP-100,2013-10-07 16:57:00,
2013-10-07 13:02:00,70.9,60.0,29.85,SSW,202,3.0,17.0,68,0.00,,,0.00,Rainwise IP-100,2013-10-07 17:02:00,
2013-10-07 13:07:00,71.3,60.0,29.85,ESE,112,18.0,18.0,68,0.00,,,0.00,Rainwise IP-100,2013-10-07 17:07:00,
2013-10-07 13:12:00,71.1,59.0,29.85,South,180,11.0,19.0,67,0.00,,,0.00,Rainwise IP-100,2013-10-07 17:12:00,
2013-10-07 13:17:00,70.7,60.0,29.84,SE,135,11.0,18.0,69,0.00,,,0.00,Rainwise IP-100,2013-10-07 17:17:00,
2013-10-07 13:22:00,70.3,60.0,29.84,South,180,19.0,19.0,70,0.00,,,0.00,Rainwise IP-100,2013-10-07 17:22:00,
2013-10-07 13:27:00,69.7,60.0,29.85,South,180,13.0,25.0,72,0.00,,,0.00,Rainwise IP-100,2013-10-07 17:27:00,
2013-10-07 13:32:00,69.2,60.0,29.85,South,180,9.0,26.0,73,0.00,,,0.00,Rainwise IP-100,2013-10-07 17:32:00,
2013-10-07 13:37:00,68.7,60.0,29.84,SE,135,8.0,22.0,74,0.00,,,0.00,Rainwise IP-100,2013-10-07 17:37:00,
2013-10-07 13:43:00,67.6,61.0,29.84,SSE,157,16.0,23.0,80,0.00,,,0.00,Rainwise IP-100,2013-10-07 17:43:00,
2013-10-07 13:48:00,66.8,61.0,29.84,SSE,157,4.0,17.0,82,0.00,,,0.00,Rainwise IP-100,2013-10-07 17:48:00,
2013-10-07 13:53:00,66.1,61.0,29.82,SE,135,7.0,13.0,85,0.06,,,0.01,Rainwise IP-100,2013-10-07 17:53:00,
2013-10-07 13:58:00,65.3,61.0,29.82,SSW,202,9.0,10.0,88,0.06,,,0.01,Rainwise IP-100,2013-10-07 17:58:00,
2013-10-07 14:03:00,65.3,61.0,29.81,South,180,6.0,11.0,88,0.00,,,0.01,Rainwise IP-100,2013-10-07 18:03:00,
2013-10-07 14:08:00,65.4,61.0,29.80,South,180,4.0,8.0,88,0.00,,,0.01,Rainwise IP-100,2013-10-07 18:08:00,
2013-10-07 14:13:00,65.4,61.0,29.79,SE,135,4.0,7.0,88,0.00,,,0.01,Rainwise IP-100,2013-10-07 18:13:00,
2013-10-07 14:18:00,65.2,61.0,29.80,WSW,247,1.0,7.0,89,0.00,,,0.01,Rainwise IP-100,2013-10-07 18:18:00,
2013-10-07 14:23:00,64.9,62.0,29.80,SSE,157,4.0,9.0,91,0.06,,,0.03,Rainwise IP-100,2013-10-07 18:23:00,
2013-10-07 14:28:00,64.7,62.0,29.81,SSW,202,4.0,8.0,94,0.18,,,0.05,Rainwise IP-100,2013-10-07 18:28:00,
2013-10-07 14:33:00,64.4,62.0,29.80,South,180,2.0,8.0,94,0.24,,,0.07,Rainwise IP-100,2013-10-07 18:33:00,
2013-10-07 14:38:00,64.0,62.0,29.80,SE,135,4.0,4.0,95,0.24,,,0.08,Rainwise IP-100,2013-10-07 18:38:00,
2013-10-07 14:44:00,63.9,63.0,29.79,SW,225,2.0,8.0,96,0.24,,,0.11,Rainwise IP-100,2013-10-07 18:44:00,
2013-10-07 14:49:00,63.7,63.0,29.80,NW,315,7.0,7.0,98,0.42,,,0.15,Rainwise IP-100,2013-10-07 18:49:00,
2013-10-07 14:54:00,61.8,60.0,29.82,South,180,7.0,16.0,95,0.84,,,0.25,Rainwise IP-100,2013-10-07 18:54:00,
2013-10-07 14:59:00,60.0,59.0,29.82,South,180,2.0,17.0,97,1.44,,,0.40,Rainwise IP-100,2013-10-07 18:59:00,
2013-10-07 15:04:00,58.9,58.0,29.83,South,180,9.0,12.0,98,1.68,,,0.54,Rainwise IP-100,2013-10-07 19:04:00,
2013-10-07 15:09:00,58.1,57.0,29.84,SSW,202,7.0,12.0,98,1.20,,,0.59,Rainwise IP-100,2013-10-07 19:09:00,
2013-10-07 15:14:00,57.7,57.0,29.85,SW,225,3.0,9.0,97,0.48,,,0.61,Rainwise IP-100,2013-10-07 19:14:00,
2013-10-07 15:19:00,57.5,57.0,29.84,SE,135,2.0,8.0,97,0.12,,,0.62,Rainwise IP-100,2013-10-07 19:19:00,
2013-10-07 15:24:00,57.3,56.0,29.84,SE,135,4.0,7.0,97,0.18,,,0.64,Rainwise IP-100,2013-10-07 19:24:00,
2013-10-07 15:29:00,57.2,56.0,29.84,SW,225,1.0,5.0,97,0.24,,,0.66,Rainwise IP-100,2013-10-07 19:29:00,
2013-10-07 15:34:00,57.0,56.0,29.84,South,180,0.0,4.0,97,0.18,,,0.67,Rainwise IP-100,2013-10-07 19:34:00,
2013-10-07 15:39:00,56.9,56.0,29.85,West,270,5.0,6.0,97,0.18,,,0.69,Rainwise IP-100,2013-10-07 19:39:00,
2013-10-07 15:45:00,56.9,56.0,29.85,SW,225,2.0,7.0,97,0.18,,,0.70,Rainwise IP-100,2013-10-07 19:45:00,
2013-10-07 15:50:00,56.7,56.0,29.84,SSW,202,2.0,9.0,97,0.18,,,0.72,Rainwise IP-100,2013-10-07 19:50:00,
2013-10-07 15:55:00,56.5,56.0,29.83,WSW,247,2.0,7.0,97,0.24,,,0.74,Rainwise IP-100,2013-10-07 19:55:00,
2013-10-07 16:00:00,56.4,56.0,29.83,East,90,2.0,6.0,97,0.24,,,0.76,Rainwise IP-100,2013-10-07 20:00:00,
2013-10-07 16:05:00,56.2,55.0,29.82,SSE,157,2.0,4.0,97,0.18,,,0.77,Rainwise IP-100,2013-10-07 20:05:00,
2013-10-07 16:10:00,56.1,55.0,29.81,SE,135,1.0,6.0,97,0.06,,,0.77,Rainwise IP-100,2013-10-07 20:10:00,
2013-10-07 16:15:00,55.9,55.0,29.81,SE,135,4.0,10.0,97,0.06,,,0.78,Rainwise IP-100,2013-10-07 20:15:00,
2013-10-07 16:20:00,55.8,55.0,29.82,South,180,3.0,5.0,97,0.06,,,0.78,Rainwise IP-100,2013-10-07 20:20:00,
2013-10-07 16:25:00,55.7,55.0,29.82,South,180,0.0,5.0,97,0.06,,,0.79,Rainwise IP-100,2013-10-07 20:25:00,
2013-10-07 16:30:00,55.7,55.0,29.81,SSW,202,5.0,7.0,97,0.06,,,0.79,Rainwise IP-100,2013-10-07 20:30:00,
2013-10-07 16:35:00,55.8,55.0,29.82,South,180,0.0,9.0,97,0.06,,,0.80,Rainwise IP-100,2013-10-07 20:35:00,
2013-10-07 16:40:00,55.9,55.0,29.82,SW,225,2.0,7.0,97,0.06,,,0.80,Rainwise IP-100,2013-10-07 20:40:00,
2013-10-07 16:46:00,55.9,55.0,29.82,South,180,4.0,6.0,97,0.00,,,0.81,Rainwise IP-100,2013-10-07 20:46:00,
2013-10-07 16:51:00,55.8,55.0,29.84,WSW,247,2.0,13.0,97,0.06,,,0.81,Rainwise IP-100,2013-10-07 20:51:00,
2013-10-07 16:56:00,54.9,54.0,29.84,West,270,7.0,12.0,95,0.00,,,0.81,Rainwise IP-100,2013-10-07 20:56:00,
2013-10-07 17:01:00,53.9,53.0,29.86,SE,135,2.0,15.0,96,0.00,,,0.81,Rainwise IP-100,2013-10-07 21:01:00,
2013-10-07 17:06:00,53.4,53.0,29.86,SSW,202,3.0,6.0,97,0.00,,,0.81,Rainwise IP-100,2013-10-07 21:06:00,
2013-10-07 17:11:00,52.8,51.0,29.86,WSW,247,2.0,13.0,96,0.00,,,0.81,Rainwise IP-100,2013-10-07 21:11:00,
2013-10-07 17:16:00,52.5,52.0,29.85,WSW,247,2.0,12.0,97,0.00,,,0.81,Rainwise IP-100,2013-10-07 21:16:00,
2013-10-07 17:21:00,52.3,51.0,29.86,South,180,2.0,11.0,97,0.00,,,0.81,Rainwise IP-100,2013-10-07 21:21:00,
2013-10-07 17:26:00,52.2,51.0,29.88,SW,225,1.0,9.0,97,0.00,,,0.81,Rainwise IP-100,2013-10-07 21:26:00,
2013-10-07 17:31:00,51.9,51.0,29.88,SSE,157,4.0,6.0,97,0.00,,,0.81,Rainwise IP-100,2013-10-07 21:31:00,
2013-10-07 17:36:00,51.9,51.0,29.89,SSW,202,2.0,9.0,97,0.06,,,0.82,Rainwise IP-100,2013-10-07 21:36:00,
2013-10-07 17:41:00,51.8,51.0,29.89,West,270,2.0,7.0,97,0.06,,,0.82,Rainwise IP-100,2013-10-07 21:41:00,
2013-10-07 17:47:00,51.7,51.0,29.89,North,360,0.0,6.0,97,0.00,,,0.82,Rainwise IP-100,2013-10-07 21:47:00,
2013-10-07 17:52:00,51.5,51.0,29.90,SSW,202,1.0,6.0,97,0.00,,,0.82,Rainwise IP-100,2013-10-07 21:52:00,
2013-10-07 17:57:00,51.5,51.0,29.90,West,270,0.0,5.0,97,0.00,,,0.82,Rainwise IP-100,2013-10-07 21:57:00,
2013-10-07 18:02:00,51.5,51.0,29.89,West,270,2.0,4.0,97,0.00,,,0.82,Rainwise IP-100,2013-10-07 22:02:00,
2013-10-07 18:07:00,51.6,51.0,29.90,SW,225,2.0,8.0,97,0.00,,,0.82,Rainwise IP-100,2013-10-07 22:07:00,
2013-10-07 18:12:00,51.7,51.0,29.91,SW,225,6.0,11.0,97,0.00,,,0.82,Rainwise IP-100,2013-10-07 22:12:00,
2013-10-07 18:17:00,51.9,51.0,29.91,South,180,2.0,13.0,97,0.06,,,0.83,Rainwise IP-100,2013-10-07 22:17:00,
2013-10-07 18:22:00,51.9,51.0,29.91,SSW,202,4.0,11.0,97,0.06,,,0.83,Rainwise IP-100,2013-10-07 22:22:00,
2013-10-07 18:27:00,51.8,51.0,29.91,SSE,157,1.0,7.0,97,0.00,,,0.83,Rainwise IP-100,2013-10-07 22:27:00,
2013-10-07 18:32:00,51.7,51.0,29.91,South,180,0.0,5.0,97,0.00,,,0.83,Rainwise IP-100,2013-10-07 22:32:00,
2013-10-07 18:37:00,51.6,51.0,29.91,South,180,0.0,2.0,97,0.00,,,0.83,Rainwise IP-100,2013-10-07 22:37:00,
2013-10-07 18:42:00,51.4,50.0,29.91,WNW,292,4.0,4.0,97,0.00,,,0.83,Rainwise IP-100,2013-10-07 22:42:00,
2013-10-07 18:48:00,51.5,50.0,29.92,South,180,4.0,10.0,96,0.00,,,0.83,Rainwise IP-100,2013-10-07 22:48:00,
2013-10-07 18:53:00,51.5,50.0,29.92,South,180,2.0,11.0,92,0.00,,,0.83,Rainwise IP-100,2013-10-07 22:53:00,
2013-10-07 18:58:00,51.5,49.0,29.93,West,270,4.0,12.0,91,0.00,,,0.83,Rainwise IP-100,2013-10-07 22:58:00,
2013-10-07 19:03:00,51.4,49.0,29.93,South,180,7.0,16.0,92,0.00,,,0.83,Rainwise IP-100,2013-10-07 23:03:00,
2013-10-07 19:08:00,51.4,49.0,29.93,WSW,247,2.0,14.0,92,0.00,,,0.83,Rainwise IP-100,2013-10-07 23:08:00,
2013-10-07 19:13:00,51.3,49.0,29.94,SSE,157,3.0,10.0,92,0.00,,,0.83,Rainwise IP-100,2013-10-07 23:13:00,
2013-10-07 19:18:00,51.3,49.0,29.94,South,180,7.0,13.0,91,0.00,,,0.83,Rainwise IP-100,2013-10-07 23:18:00,
2013-10-07 19:23:00,51.3,48.0,29.93,SW,225,6.0,11.0,90,0.00,,,0.83,Rainwise IP-100,2013-10-07 23:23:00,
2013-10-07 19:28:00,51.1,49.0,29.94,ESE,112,4.0,12.0,92,0.00,,,0.83,Rainwise IP-100,2013-10-07 23:28:00,
2013-10-07 19:33:00,50.9,49.0,29.94,West,270,6.0,12.0,91,0.00,,,0.83,Rainwise IP-100,2013-10-07 23:33:00,
2013-10-07 19:38:00,50.9,49.0,29.94,SSW,202,1.0,14.0,91,0.00,,,0.83,Rainwise IP-100,2013-10-07 23:38:00,
2013-10-07 19:43:00,51.1,48.0,29.94,West,270,3.0,15.0,89,0.00,,,0.83,Rainwise IP-100,2013-10-07 23:43:00,
2013-10-07 19:49:00,51.0,48.0,29.94,West,270,5.0,13.0,89,0.00,,,0.83,Rainwise IP-100,2013-10-07 23:49:00,
2013-10-07 19:54:00,50.7,47.0,29.93,SSW,202,6.0,7.0,90,0.00,,,0.83,Rainwise IP-100,2013-10-07 23:54:00,
2013-10-07 19:59:00,50.5,47.0,29.93,SSW,202,1.0,8.0,90,0.00,,,0.83,Rainwise IP-100,2013-10-07 23:59:00,
2013-10-07 20:04:00,50.6,47.0,29.93,NE,45,3.0,11.0,88,0.00,,,0.83,Rainwise IP-100,2013-10-08 00:04:00,
2013-10-07 20:09:00,50.7,47.0,29.94,NW,315,2.0,9.0,87,0.00,,,0.83,Rainwise IP-100,2013-10-08 00:09:00,
2013-10-07 20:14:00,50.8,46.0,29.94,ESE,112,1.0,12.0,85,0.00,,,0.83,Rainwise IP-100,2013-10-08 00:14:00,
2013-10-07 20:19:00,50.9,47.0,29.94,SW,225,9.0,13.0,85,0.00,,,0.83,Rainwise IP-100,2013-10-08 00:19:00,
2013-10-07 20:24:00,50.7,47.0,29.94,SW,225,9.0,12.0,86,0.00,,,0.83,Rainwise IP-100,2013-10-08 00:24:00,
2013-10-07 20:29:00,50.7,47.0,29.95,West,270,1.0,13.0,86,0.00,,,0.83,Rainwise IP-100,2013-10-08 00:29:00,
2013-10-07 20:34:00,50.5,47.0,29.95,SW,225,7.0,13.0,87,0.00,,,0.83,Rainwise IP-100,2013-10-08 00:34:00,
2013-10-07 20:39:00,50.5,46.0,29.95,SW,225,3.0,16.0,85,0.00,,,0.83,Rainwise IP-100,2013-10-08 00:39:00,
2013-10-07 20:44:00,50.6,46.0,29.95,SE,135,6.0,19.0,85,0.00,,,0.83,Rainwise IP-100,2013-10-08 00:44:00,
2013-10-07 20:50:00,50.4,47.0,29.95,West,270,9.0,16.0,86,0.00,,,0.83,Rainwise IP-100,2013-10-08 00:50:00,
2013-10-07 20:55:00,50.2,46.0,29.95,South,180,16.0,17.0,86,0.00,,,0.83,Rainwise IP-100,2013-10-08 00:55:00,
2013-10-07 21:00:00,50.3,45.0,29.96,WSW,247,3.0,15.0,84,0.00,,,0.83,Rainwise IP-100,2013-10-08 01:00:00,
2013-10-07 21:05:00,50.3,46.0,29.96,SE,135,4.0,19.0,85,0.00,,,0.83,Rainwise IP-100,2013-10-08 01:05:00,
2013-10-07 21:10:00,50.3,46.0,29.96,North,360,1.0,17.0,85,0.00,,,0.83,Rainwise IP-100,2013-10-08 01:10:00,
2013-10-07 21:15:00,50.2,46.0,29.96,South,180,9.0,12.0,85,0.00,,,0.83,Rainwise IP-100,2013-10-08 01:15:00,
2013-10-07 21:20:00,50.2,46.0,29.96,SE,135,5.0,17.0,85,0.00,,,0.83,Rainwise IP-100,2013-10-08 01:20:00,
2013-10-07 21:25:00,50.2,46.0,29.95,SW,225,4.0,17.0,85,0.00,,,0.83,Rainwise IP-100,2013-10-08 01:25:00,
2013-10-07 21:30:00,50.0,46.0,29.96,SSE,157,7.0,12.0,85,0.00,,,0.83,Rainwise IP-100,2013-10-08 01:30:00,
2013-10-07 21:35:00,49.9,46.0,29.96,SW,225,6.0,9.0,86,0.00,,,0.83,Rainwise IP-100,2013-10-08 01:35:00,
2013-10-07 21:40:00,49.8,46.0,29.97,SW,225,4.0,12.0,86,0.00,,,0.83,Rainwise IP-100,2013-10-08 01:40:00,
2013-10-07 21:45:00,49.8,46.0,29.97,SW,225,6.0,11.0,86,0.00,,,0.83,Rainwise IP-100,2013-10-08 01:45:00,
2013-10-07 21:51:00,49.8,45.0,29.97,WSW,247,5.0,9.0,84,0.00,,,0.83,Rainwise IP-100,2013-10-08 01:51:00,
2013-10-07 21:56:00,49.8,45.0,29.97,SW,225,4.0,12.0,84,0.00,,,0.83,Rainwise IP-100,2013-10-08 01:56:00,
2013-10-07 22:01:00,49.9,45.0,29.98,SE,135,4.0,17.0,83,0.00,,,0.83,Rainwise IP-100,2013-10-08 02:01:00,
2013-10-07 22:06:00,50.2,45.0,29.98,SW,225,9.0,13.0,82,0.00,,,0.83,Rainwise IP-100,2013-10-08 02:06:00,
2013-10-07 22:11:00,50.3,45.0,29.98,SE,135,6.0,12.0,82,0.00,,,0.83,Rainwise IP-100,2013-10-08 02:11:00,
2013-10-07 22:16:00,50.2,45.0,29.99,SE,135,6.0,7.0,83,0.00,,,0.83,Rainwise IP-100,2013-10-08 02:16:00,
2013-10-07 22:21:00,50.2,45.0,29.99,SSW,202,1.0,11.0,83,0.00,,,0.83,Rainwise IP-100,2013-10-08 02:21:00,
2013-10-07 22:26:00,50.1,45.0,29.99,SSW,202,7.0,10.0,84,0.00,,,0.83,Rainwise IP-100,2013-10-08 02:26:00,
2013-10-07 22:31:00,49.9,46.0,29.99,West,270,1.0,12.0,85,0.00,,,0.83,Rainwise IP-100,2013-10-08 02:31:00,
2013-10-07 22:36:00,49.7,46.0,29.99,SW,225,1.0,6.0,86,0.00,,,0.83,Rainwise IP-100,2013-10-08 02:36:00,
2013-10-07 22:41:00,49.5,46.0,29.99,West,270,2.0,7.0,87,0.00,,,0.83,Rainwise IP-100,2013-10-08 02:41:00,
2013-10-07 22:46:00,49.5,46.0,29.99,SE,135,2.0,7.0,87,0.00,,,0.83,Rainwise IP-100,2013-10-08 02:46:00,
2013-10-07 22:52:00,49.4,45.0,29.98,WSW,247,2.0,6.0,87,0.00,,,0.83,Rainwise IP-100,2013-10-08 02:52:00,
2013-10-07 22:57:00,49.4,45.0,29.99,South,180,4.0,7.0,87,0.00,,,0.83,Rainwise IP-100,2013-10-08 02:57:00,
2013-10-07 23:02:00,49.5,46.0,29.99,SE,135,1.0,6.0,87,0.00,,,0.83,Rainwise IP-100,2013-10-08 03:02:00,
2013-10-07 23:07:00,49.6,46.0,29.99,SSE,157,3.0,12.0,87,0.00,,,0.83,Rainwise IP-100,2013-10-08 03:07:00,
2013-10-07 23:12:00,49.5,46.0,29.99,SW,225,4.0,12.0,87,0.00,,,0.83,Rainwise IP-100,2013-10-08 03:12:00,
2013-10-07 23:17:00,49.4,45.0,29.99,East,90,2.0,7.0,87,0.00,,,0.83,Rainwise IP-100,2013-10-08 03:17:00,
2013-10-07 23:22:00,49.4,45.0,29.99,South,180,1.0,6.0,87,0.00,,,0.83,Rainwise IP-100,2013-10-08 03:22:00,
2013-10-07 23:27:00,49.5,46.0,29.99,South,180,1.0,10.0,87,0.00,,,0.83,Rainwise IP-100,2013-10-08 03:27:00,
2013-10-07 23:32:00,49.5,46.0,29.99,SW,225,5.0,6.0,87,0.00,,,0.83,Rainwise IP-100,2013-10-08 03:32:00,
2013-10-07 23:37:00,49.6,47.0,29.99,South,180,2.0,10.0,88,0.00,,,0.83,Rainwise IP-100,2013-10-08 03:37:00,
2013-10-07 23:42:00,49.7,47.0,30.00,South,180,3.0,10.0,88,0.00,,,0.83,Rainwise IP-100,2013-10-08 03:42:00,
2013-10-07 23:47:00,49.7,47.0,29.99,SSW,202,3.0,11.0,88,0.00,,,0.83,Rainwise IP-100,2013-10-08 03:47:00,
2013-10-07 23:53:00,49.8,47.0,30.00,South,180,7.0,16.0,88,0.00,,,0.83,Rainwise IP-100,2013-10-08 03:53:00,
2013-10-07 23:58:00,49.9,46.0,30.00,SW,225,1.0,15.0,87,0.00,,,0.83,Rainwise IP-100,2013-10-08 03:58:00,